www.pogodaiklimat.ru

Погода и климат >> Архив погоды >> Россия >> Магаданская область >> Мыс Алевина


АРХИВ ПОГОДЫ на Мысе Алевина

Время (UTC), дата Ветер
(напр.,м/с)
 
Видим.   Явления Облачность Т
(С)
Тd
(С)
f
(%)
Тe
(С)
Тes
(С)
Комфортность P
(гПа)
Po
(гПа)
Тmin
(С)
Tmax
(С)
R
(мм)
R24
(мм)
S
(см)
06 12.06 ЮВ 2 50 км 9/5 1000 м
[Sc Ac trans Ci fib]
+8.4 +5.0 79 +7 +9 1018.2 1010.2
09 12.06 ЮЗ 1 50 км 9/4 1000 м
[Sc Ac trans Ci fib]
+7.9 +5.7 86 +7 +7 1017.9 1009.9 +9.7
12 12.06 СЗ 3 50 км 9/9 1000 м
[Sc]
+6.8 +5.4 91 +4 +4 1018.0 1010.0
15 12.06 З 3 10 км туман местами 10/10 600 м
[Cb cap]
+6.2 +5.9 98 +3 +3 1018.6 1010.6
18 12.06 З 1 50 км 10/10 300 м
[St]
+5.9 +5.5 97 +5 +5 1019.0 1010.9
21 12.06 СЗ 1 50 км 10/10 300 м
[St]
+6.1 +5.6 97 +5 +5 1019.7 1011.6 +5.7
00 13.06 З 3 50 км 10/10 300 м
[St]
+6.1 +5.0 93 +3 +3 1020.4 1012.3 +5.4
03 13.06 З 4 50 км 10/10 300 м
[St]
+6.5 +4.8 89 +3 +3 1020.3 1012.2
06 13.06 З 5 50 км 9/8 1000 м
[Sc Ac trans]
+7.1 +4.9 86 +3 +4 1019.5 1011.5
09 13.06 СЗ 8-10
{10}
50 км 8/8 1000 м
[Sc]
+6.0 +4.2 88 0 0 1019.0 1010.9 +7.8
12 13.06 СЗ 9-10
{11}
50 км 10/10 300 м
[St]
+5.3 +4.1 92 -1 -1 1019.4 1011.3
15 13.06 СЗ 9-12
{13}
50 км 8/8 300 м
[St]
+5.2 +3.7 90 -1 -1 1018.8 1010.7
18 13.06 СЗ 9-11
{12}
50 км 8/3 1000 м
[Sc Ci fib]
+4.8 +3.4 91 -2 -2 1018.1 1010.1
21 13.06 СЗ 9-10
{11}
50 км 8/3 1000 м
[Sc Ci fib]
+6.1 +4.0 86 0 +1 1018.2 1010.1 +4.0
00 14.06 СЗ 10-12
{12}
50 км 8/4 1000 м
[Sc Ci fib]
+8.4 +5.9 84 +3 +4 1018.2 1010.2
03 14.06 СЗ 9-12
{13}
50 км 6/3 1000 м
[Sc Ac trans Ci fib]
+8.4 +5.8 84 +4 +4 1018.0 1010.1
06 14.06 СЗ 9-13
{13}
50 км 8/3 1000 м
[Sc Ac trans Ci fib]
+7.1 +5.5 90 +2 +2 1018.2 1010.2
09 14.06 З 9-11
{13}
50 км 9/4 1000 м
[Sc Ci fib]
+6.7 +4.4 85 +1 +1 1019.0 1010.9 +8.9
12 14.06 СЗ 10-11
{12}
50 км 9/6 1000 м
[Sc Ci fib]
+5.5 +4.6 94 -1 -1 1019.5 1011.4
15 14.06 СЗ 8-10
{11}
50 км 8/5 600 м
[Sc Ci fib]
+5.1 +4.0 93 -1 -1 1019.8 1011.7
18 14.06 СЗ 10-13
{13}
50 км 9/8 1000 м
[Sc Ci fib]
+5.3 +3.7 89 -1 -1 1020.1 1012.0
21 14.06 СЗ 9-11
{13}
50 км 9/9 1000 м
[Sc]
+5.7 +3.8 88 -0 -0 1021.0 1012.9 +4.3
00 15.06 СЗ 10-12
{12}
50 км 8/8 1000 м
[Sc]
+7.0 +4.2 82 +1 +1 1021.0 1013.0
03 15.06 СЗ 9-12
{13}
50 км 4/4 1000 м
[Sc]
+8.3 +5.0 80 +3 +4 1021.0 1013.0
06 15.06 СЗ 9-11
{12}
50 км 3/3 1000 м
[Sc]
+7.2 +4.6 84 +2 +2 1020.8 1012.8
09 15.06 СЗ 8-10
{11}
50 км 9/3 1000 м
[Sc Ac trans Ci fib]
+5.4 +4.3 93 -1 -0 1020.5 1012.4 +8.5
12 15.06 СЗ 3
{10}
50 км 6/3 1000 м
[Sc Ac trans Ci fib]
+5.4 +4.8 96 +2 +2 1020.7 1012.6
15 15.06 В 3 50 км 6/3 1000 м
[Sc Ci fib]
+3.2 +3.1 99 -1 -1 1020.3 1012.2
18 15.06 В 6 50 км 9/6 1000 м
[Sc Ac trans]
+3.3 +3.2 99 -3 -3 1019.7 1001.6
21 15.06 ЮВ 11-14
{14}
10 км слаб. ливневой дождь 10/10 600 м
[Cb cap]
+4.4 +3.9 97 -3 -3 1019.3 1011.1 +3.1 0.4
00 16.06 В 12-17
{17}
2000 м ливневой дождь 10/10 600 м
[Cb cap]
+6.3 +5.4 94 -0 -0 1016.3 1008.3
03 16.06 В 14-18
{20}
2000 м ливневой дождь 10/10 600 м
[Cb cap]
+4.6 +4.5 99 -3 -3 1016.0 1007.9
06 16.06 В 14-19
{22}
10 км туман местами {ливн. осадки} 10/10 600 м
[Cb cap]
+4.7 +4.7 100 -3 -3 1015.3 1007.2
09 16.06 В 13-16
{20}
500 м туман ?/? +4.1 +4.1 100 -4 -4 1015.1 1007.0 +7.7 11
12 16.06 В 10-13
{16}
500 м туман {ливн. осадки} ?/? +3.1 +3.1 100 -4 -4 1016.3 1008.1
15 16.06 В 10-12
{14}
500 м слаб. морось {туман} туман ?/? +3.0 +3.0 100 -4 -4 1016.9 1008.8
18 16.06 В 9-11
{12}
500 м слаб. морось {туман} туман ?/? +2.6 +2.6 100 -5 -5 1017.4 1009.3
21 16.06 В 9-12
{14}
500 м туман ?/? +3.1 +3.1 100 -4 -4 1017.5 1009.4 +2.6 1
00 17.06 В 11-14
{16}
10 км слаб. ливневой дождь {туман} 10/10 600 м
[Cb cap]
+4.1 +4.1 100 -3 -3 1016.9 1008.8
03 17.06 В 11-13
{15}
10 км слаб. ливневой дождь 10/10 600 м
[Cb cap]
+4.7 +4.6 99 -2 -2 1016.3 1008.2
06 17.06 В 9-11
{14}
10 км слаб. ливневой дождь 10/10 600 м
[Cb cap]
+4.4 +4.4 100 -2 -2 1015.0 1006.9
09 17.06 СВ 2
{12}
500 м слаб. ливневой дождь {туман} н/о +3.9 +3.9 100 +1 +1 1013.9 1005.8 +4.9 7
12 17.06 СЗ 3 500 м слаб. ливневой дождь {туман} ?/? +4.7 +4.7 100 +1 +1 1011.4 1003.4
15 17.06 СЗ 3 500 м слаб. ливневой дождь {туман} ?/? +4.9 +4.9 100 +1 +1 1008.4 1000.4
18 17.06 СЗ 2 н/о {ливн. осадки, туман} н/о +9.0 +7.6 91 +7 +7 1006.0 998.1
21 17.06 Ю 1 50 км {туман} 9/9 600 м
[Cb cap]
+9.1 +7.6 90 +8 +9 1004.9 997.0 +3.9 6
00 18.06 В 3 50 км {туман} 9/8 1000 м
[Sc Ac trans]
+8.7 +6.2 84 +6 +8 1004.8 996.9
03 18.06 В 8-12
{16}
50 км 10/10 600 м
[Cb cap]
+9.1 +6.3 83 +5 +5 1003.9 996.1
06 18.06 В 8-12
{13}
50 км 10/10 600 м
[Cb calv]
+11.3 +7.1 75 +8 +8 1004.2 996.4
09 18.06 З 1
{13}
50 км 10/10 600 м
[Cb calv]
+11.5 +7.3 75 +11 +11 1004.3 996.5 +12.6
12 18.06 С 3 50 км 10/10 600 м
[Cb calv]
+10.7 +7.0 78 +9 +9 1004.4 996.6
15 18.06 В 2 50 км 10/10 600 м
[Cb calv]
+13.3 +7.9 70 +13 +13 1003.0 995.3
18 18.06 С 3
{11}
50 км 10/10 600 м
[Cb calv]
+11.2 +6.9 75 +9 +9 1002.8 995.0
21 18.06 В 6
{12}
50 км 10/10 600 м
[Cb calv]
+7.7 +5.4 85 +3 +3 1004.0 996.1 +7.7
00 19.06 В 4
{11}
н/о н/о +9.5 +7.2 86 +7 +7 1005.8 998.0
03 19.06 В 2
{13}
10 км слаб. ливневой дождь 10/10 600 м
[Cb cap]
+7.4 +7.2 99 +5 +5 1007.3 999.4

 

Местоположение метеостанции Мыс Алевина (Магаданская область, Россия): широта 58.83 долгота 151.30 высота над уровнем моря 65 м.

В архиве по умолчанию представлена погода на Мысе Алевина за последнюю неделю. Архивные данные за месяц целиком и за предыдущие месяцы, начиная с января 2011 года, Вы можете получить, выбрав интересующий диапазон дат из раскрывающегося списка и нажав кнопку "Ввод!".


*Определитесь, кто Вы:
робот инопланетянин человек

Внимание! Время в таблицах - всемирное. Для получения местного времени необходимо прибавить поправку, которая равна 11 ч.

Смотрите также архив погоды в соседних городах и на ближайших метеорологических станциях:

Погода в Оле (Магаданская область, Россия) (81 км)
Погода в Нагаева (Магаданская область, Россия) (84 км)
Погода в Магадане (Магаданская область, Россия) (87 км)
Погода в Армани (Магаданская область, Россия) (115 км)
Погода на Мысе Братьев (Магаданская область, Россия) (119 км)
Погода на Острове Спафарьева (Магаданская область, Россия) (137 км)
Погода в Палатке (Магаданская область, Россия) (143 км)
Погода в Талоне (Магаданская область, Россия) (185 км)
Погода в Брохово (Магаданская область, Россия) (188 км)
Погода в Мадауне (Магаданская область, Россия) (200 км)

Пояснения к столбцам:

Ветер - указаны скорость ветра в м/с - средняя за 10 мин, порывы в срок и между сроками (в фигурных скобках) и направление, откуда дует ветер: С - северный, СВ - северо-восточный, В - восточный, ЮВ - юго-восточный, Ю - южный, ЮЗ - юго-западный, З - западный, СЗ - северо-западный.
Видимость - горизонтальная дальность видимости в метрах или километрах. При видимости от 1 до 10 км при отсутствии осадков обычно наблюдается дымка, при ухудшении видимости до 1 км и менее - туман. В сухую погоду видимость может ухудшаться дымом, пылью или мглою.
Явления - указаны атмосферные явления, наблюдавшиеся в срок или в последний час перед сроком; фигурными скобками обозначены явления, наблюдавшиеся между сроками (за 1-3 часа до срока); квадратными скобками обозначены град или гололедные отложения с указанием их диаметра в мм.
Облачность - указаны через наклонную черту общая и нижняя облачность в баллах и высота нижней границы облаков в метрах; квадратными скобками обозначены формы облаков: Ci - перистые, Cs - перисто-слоистые, Cc - перисто-кучевые, Ac - высококучевые, As - высокослоистые, Sc - слоисто-кучевые, Ns - слоисто-дождевые, Cu - кучевые, Cb - кучево-дождевые. Подробнее классификацию облаков см. в Атласе облаков (PDF).
T - Температура воздуха - температура, измеренная на высоте 2 м над землей.
Td - Температура точки росы - температура, при понижении до которой содержащийся в воздухе водяной пар достигнет насыщения.
f - Относительная влажность воздуха - влажноcть воздуха, измеренная на высоте 2 м над землей.
Te - Эффективная температура - температура, которую ощущает одетый по сезону человек в тени. Характеристика душности погоды. При расчете учитывается влияние влажности воздуха и скорости ветра на теплоощущения человека.
Tes - Эффективная температура на солнце - температура, которую ощущает человек, с поправкой на солнечный нагрев. Характеристика знойности погоды. Зависит от высоты солнца над горизонтом, облачности и скорости ветра. Ночью, в пасмурную погоду, а также при ветре 12 м/с и более поправка равна нулю.
P - Атмосферное давление - приведенное к уровню моря атмосферное давление.
Po - Атмосферное давление - измеренное на уровне метеостанции атмосферное давление.
Tmin - Минимальная температура - минимум температуры воздуха на высоте 2 м над землей.
Tmax - Максимальная температура - максимум температуры воздуха на высоте 2 м над землей.
R - Количество осадков - Количество выпавших осадков за период времени, мм. При наведении курсора мыши на число - период времени, за который выпало указанное количество осадков.
R24 - Количество осадков - Количество выпавших осадков за 24 часа, мм.
S - Снежный покров - Высота снежного покрова, см. При наведении курсора мыши на число - состояние снежного покрова и степень покрытия местности в баллах.